Location: Namasale
(1.5000°N, 32.6167°E)
Time: 01:20:53
(UTC+00:00)

Cosmos 1992 Rocket - Pass Details

Date: 09 April 2020
Orbit: 759 x 766 km, 74.0° (Epoch: 06 June)

Event Time Altitude Azimuth Distance (km) Brightness Sun altitude
Rises 17:34:01 0° 345° (NNW) 3,201 7.5 -25.3°
Reaches altitude 10° 17:36:23 10° 343° (NNW) 2,279 6.7 -25.8°
Maximum altitude 17:41:33 76° 258° (WSW) 783 4.0 -27.1°
Enters shadow 17:42:13 65° 200° (SSW) 832 4.1 -27.3°
